Regional Weather Roundup
Issued by NWS

Home | Current Version | Previous Version | Text Only | Print | Product List | Glossary On
Versions: 1 2 3 4 5 6 7 8 9 10 11 12 13 14 15 16 17 18 19 20 21 22 23 24 25 26 27 28 29 30 31 32 33 34 35 36 37 38 39 40 41 42 43 44 45 46 47 48 49 50
000
ASUS43 KDMX 030607
RWRIA

WEATHER ROUNDUP FOR IOWA
NATIONAL WEATHER SERVICE DES MOINES IA
100 AM CDT FRI JUL 03 2015

NOTE: "FAIR" INDICATES FEW OR NO CLOUDS BELOW 12,000 FEET WITH NO
SIGNIFICANT WEATHER AND/OR OBSTRUCTIONS TO VISIBILITY.

* - THESE STATIONS ARE NOT NWS STATIONS...THUS NOT UNDER NWS
QUALITY CONTROL.  THEY ALSO DO NOT REPORT WEATHER SUCH
AS PRECIPITATION OR FOG.

IAZ001>003-012>014-020>022-031>034-043>046-030700-
   NORTHWEST IOWA

CITY           SKY/WX    TMP DP  RH WIND       PRES   REMARKS
CARROLL *      CLOUDY    61  61 100 CALM      30.01S
CHEROKEE *     PTCLDY    56  56 100 CALM      30.01S
DENISON *      CLOUDY    59  57  94 E3        29.99S
LE MARS *        N/A     57  57 100 CALM      30.02R
ORANGE CITY *  CLEAR     57  57 100 CALM      30.02R
SHELDON *      CLOUDY    52  52 100 CALM      30.01R
SIOUX CITY     PTCLDY    62  58  86 E5        30.01R
6HR MIN TEMP:  62; 6HR MAX TEMP:  68;

SPENCER        CLEAR     48  46  93 NW3       30.02R
6HR MIN TEMP:  48; 6HR MAX TEMP:  69;

STORM LAKE *   CLEAR     59  55  88 CALM      30.03R
$$

IAZ055>058-069>071-079>083-090>094-030700-
   SOUTHWEST IOWA

CITY           SKY/WX    TMP DP  RH WIND       PRES   REMARKS
ATLANTIC *     CLOUDY    61  57  88 CALM      30.00S
AUDUBON *      CLEAR     57  55  94 CALM      30.02S
CLARINDA *     MOCLDY    63  55  77 CALM      30.00S
COUNCIL BLFS * CLOUDY    61  55  82 E9        29.99F
CRESTON *      MOCLDY    61  57  88 NE7       30.00S
HARLAN  *      PTCLDY    59  59 100 CALM      30.03F
LAMONI         CLOUDY    62  58  86 N5        29.98S
6HR MIN TEMP:  61; 6HR MAX TEMP:  69;

RED OAK *      CLOUDY    63  57  82 NE5       30.00R
SHENANDOAH *   CLOUDY    64  57  77 E5        29.99R
$$

IAZ047>049-059>061-072>074-084-030700-
   CENTRAL IOWA

CITY           SKY/WX    TMP DP  RH WIND       PRES   REMARKS
AMES           PTCLDY    57  55  93 CALM      30.01R
6HR MIN TEMP:  55; 6HR MAX TEMP:  68;

ANKENY *       CLEAR     55  55 100 CALM      30.00R
CHARITON *     CLOUDY    63  57  82 NE3       29.99S
DES MOINES     CLOUDY    63  56  78 NE3       29.99S
6HR MIN TEMP:  63; 6HR MAX TEMP:  68;

GRINNELL*      CLOUDY    59  56  89 CALM      30.01S
KNOXVILLE *    CLOUDY    63  55  77 CALM      29.98S
MARSHALLTOWN   MOCLDY    60  57  89 SE3       30.00R
6HR MIN TEMP:  59; 6HR MAX TEMP:  68;

PELLA *        MOCLDY    61  58  90 CALM      30.00S
PERRY *        MOCLDY    61  59  94 CALM      30.01S
$$

IAZ004>006-015-016-023>025-035-036-030700-
   NORTH CENTRAL IOWA

CITY           SKY/WX    TMP DP  RH WIND       PRES   REMARKS
ALGONA *       CLEAR     55  54  94 CALM      30.01S
CLARION *      CLEAR     55  52  88 CALM      30.01S
ESTHERVILLE    CLEAR     50  48  93 W5        30.01R
6HR MIN TEMP:  50; 6HR MAX TEMP:  68;

FORT DODGE *   PTCLDY    55  52  88 CALM      30.02R
MASON CITY     MOCLDY    57  54  89 CALM      30.02R
6HR MIN TEMP:  56; 6HR MAX TEMP:  72;

FOREST CITY *  CLEAR     54  54 100 CALM      30.01S
IOWA FALLS *     N/A     55  54  94 CALM      30.02R
$$

IAZ007>011-017>019-026>030-037>042-050>054-066-030700-
   NORTHEAST IOWA

CITY           SKY/WX    TMP DP  RH WIND       PRES   REMARKS
CEDAR RAPIDS   CLOUDY    61  56  83 CALM      29.99R
6HR MIN TEMP:  59; 6HR MAX TEMP:  68;

CHARLES CITY * MOCLDY    57  57 100 SE3       30.01S
CLINTON *      CLOUDY    59  54  82 NE5       30.02R
DECORAH *        N/A    N/A N/A N/A MISG        N/A
DUBUQUE        CLOUDY    58  49  72 E3        30.00S
6HR MIN TEMP:  58; 6HR MAX TEMP:  67;

MONTICELLO *   CLEAR     57 N/A N/A CALM      29.99S
OELWEIN *      CLOUDY    59  54  82 CALM      30.01R
WATERLOO       PTCLDY    57  54  89 CALM      30.00R
6HR MIN TEMP:  56; 6HR MAX TEMP:  71;

$$

IAZ064-065-067-068-078-030700-
   EAST CENTRAL IOWA

CITY           SKY/WX    TMP DP  RH WIND       PRES   REMARKS
DAVENPORT      CLOUDY    60  56  86 E5        29.99R
6HR MIN TEMP:  60; 6HR MAX TEMP:  68;

IOWA CITY      CLOUDY    65  54  67 N3        30.00R
6HR MIN TEMP:  64; 6HR MAX TEMP:  70;

MT. PLEASANT * CLOUDY    64  60  84 N3        29.98S
MUSCATINE *    CLEAR     63  57  82 CALM      29.98S
QUAD CITIES    CLOUDY    63  58  83 SE3       29.98R
6HR MIN TEMP:  62; 6HR MAX TEMP:  70;

$$

IAZ062-063-075>077-085>089-095>099-030700-
   SOUTHEAST IOWA

CITY           SKY/WX    TMP DP  RH WIND       PRES   REMARKS
BURLINGTON     CLOUDY    65  59  81 NE6       29.97R
6HR MIN TEMP:  65; 6HR MAX TEMP:  69;

FAIRFIELD *    CLOUDY    63  59  88 N5        29.98F
FORT MADISON * PTCLDY    63  61  94 CALM      29.98S
KEOKUK *       CLOUDY    64  61  88 CALM      29.97R
OSKALOOSA *      N/A     61  57  88 CALM      29.99S
CENTERVILLE *  PTCLDY    63  57  82 NE3       29.99F
OTTUMWA        CLOUDY    63  57  81 NE3       29.97S
6HR MIN TEMP:  63; 6HR MAX TEMP:  69;

WASHINGTON *   CLOUDY    63  59  88 N3        30.00S
$$

ABBREVIATIONS USED IN REMARKS
   TC - TEMPERATURES IN CELSIUS
  WCI - WIND CHILL INDEX
   HX - HEAT INDEX
  VSB - VISIBILITY
$$




USA.gov is the U.S. government's official web portal to all federal, state and local government web resources and services.